Regional Weather Roundup
Issued by NWS

Home | Current Version | Previous Version | Graphics & Text | Print | Product List | Glossary On
Versions: 1 2 3 4 5 6 7 8 9 10 11 12 13 14 15 16 17 18 19 20 21 22 23 24 25 26 27 28 29 30 31 32 33 34 35 36 37 38 39 40 41 42 43 44 45 46 47 48 49 50
000
ASUS43 KDMX 251508
RWRIA

WEATHER ROUNDUP FOR IOWA
NATIONAL WEATHER SERVICE DES MOINES IA
1000 AM CDT WED MAY 25 2016

NOTE: "FAIR" INDICATES FEW OR NO CLOUDS BELOW 12,000 FEET WITH NO
SIGNIFICANT WEATHER AND/OR OBSTRUCTIONS TO VISIBILITY.

* - THESE STATIONS ARE NOT NWS STATIONS...THUS NOT UNDER NWS
QUALITY CONTROL.  THEY ALSO DO NOT REPORT WEATHER SUCH
AS PRECIPITATION OR FOG.

IAZ001>003-012>014-020>022-031>034-043>046-251600-
   NORTHWEST IOWA

CITY           SKY/WX    TMP DP  RH WIND       PRES   REMARKS
CARROLL *      MOSUNNY   66  64  94 SE9       29.88F
CHEROKEE *     CLOUDY    70  64  83 SE13      29.83F
DENISON *      MOSUNNY   68  63  83 SE13      29.83F
LE MARS *      SUNNY     68  61  77 S14G29    29.80F
ORANGE CITY *  SUNNY     68  61  77 SE10G20   29.79F
SHELDON *      SUNNY     66  61  82 SE20      29.78F
SIOUX CITY     CLOUDY    69  61  75 SE18G30   29.78F
SPENCER        CLOUDY    68  61  78 SE17      29.83F
STORM LAKE *   MOSUNNY   66  64  94 SE21      29.85F
$$

IAZ055>058-069>071-079>083-090>094-251600-
   SOUTHWEST IOWA

CITY           SKY/WX    TMP DP  RH WIND       PRES   REMARKS
ATLANTIC *     MOSUNNY   70  63  78 S15       29.88F
AUDUBON *        N/A     68  64  88 E6        29.89F
CLARINDA *       N/A     66  64  94 MISG      29.94F
COUNCIL BLFS * SUNNY     66  63  88 S9G15     29.88F
CRESTON *      PTSUNNY   68  66  94 S10G16    29.93F
HARLAN  *      SUNNY     68  63  83 S10       29.89F
LAMONI         CLOUDY    68  63  84 SW8       29.94R
RED OAK *      MOSUNNY   68  61  77 S10G17    29.90F
SHENANDOAH *   CLOUDY    66  64  94 S12       29.91F
$$

IAZ047>049-059>061-072>074-084-251600-
   CENTRAL IOWA

CITY           SKY/WX    TMP DP  RH WIND       PRES   REMARKS
AMES           LGT RAIN  67  65  93 S9        29.88F
ANKENY *       CLOUDY    66  66 100 S5        29.89F
BOONE *        CLOUDY    66  66 100 S10       29.88F
CHARITON *     MOSUNNY   68  64  88 S8G15     29.91S
DES MOINES     CLOUDY    68  64  87 S7        29.90F
GRINNELL*      CLOUDY    66  63  88 S10       29.92R
KNOXVILLE *    CLOUDY    68  64  88 S6        29.89F
MARSHALLTOWN   CLOUDY    67  64  90 S10       29.88F
NEWTON *       CLOUDY    66  66 100 S10       29.90F
PELLA *        CLOUDY    68  64  88 CALM      29.92S
PERRY *        CLOUDY    68  66  94 S10       29.89F
$$

IAZ004>006-015-016-023>025-035-036-251600-
   NORTH CENTRAL IOWA

CITY           SKY/WX    TMP DP  RH WIND       PRES   REMARKS
ALGONA *       PTSUNNY   68  64  88 S10       29.87R
CLARION *      LGT RAIN  64  64 100 SW15G21   29.89R
ESTHERVILLE    CLOUDY    66  64  93 S13       29.86S
FORT DODGE *   CLOUDY    66  61  82 S9        29.88F
MASON CITY     CLOUDY    67  66  97 E12       29.86F FOG
FOREST CITY *  MOSUNNY   64  64 100 E6        29.84R
WEBSTER CITY * LGT RAIN  64  64 100 S8        29.86F
IOWA FALLS *   LGT RAIN  66  64  94 S12G18    29.91R
$$

IAZ007>011-017>019-026>030-037>042-050>054-066-251600-
   NORTHEAST IOWA

CITY           SKY/WX    TMP DP  RH WIND       PRES   REMARKS
CEDAR RAPIDS   CLOUDY    70  65  84 SE7       29.92F
CHARLES CITY * MOSUNNY   66  66 100 E3        29.88F
CLINTON *      CLOUDY    72  66  83 SE5       29.96F
DECORAH *      MOSUNNY   68  64  88 VRB6      29.93F
DUBUQUE        CLOUDY    73  62  68 SE10      29.96F
MONTICELLO *   MOSUNNY   73  63  68 VRB6      29.92F
OELWEIN *      CLOUDY    68  66  94 SE16      29.89F
WATERLOO       CLOUDY    66  63  90 SE12      29.88R
$$

IAZ064-065-067-068-078-251600-
   EAST CENTRAL IOWA

CITY           SKY/WX    TMP DP  RH WIND       PRES   REMARKS
DAVENPORT      CLOUDY    74  62  66 SE10      29.96F
IOWA CITY      CLOUDY    71  65  81 SE10      29.93F
MT. PLEASANT * PTSUNNY   75  66  73 S12       29.93S
MUSCATINE *    SUNNY     75  64  69 SE9       29.92F
QUAD CITIES    MOSUNNY   76  62  62 SE9G17    29.94F
$$

IAZ062-063-075>077-085>089-095>099-251600-
   SOUTHEAST IOWA

CITY           SKY/WX    TMP DP  RH WIND       PRES   REMARKS
BURLINGTON     MOSUNNY   68  66  93 S13       29.93F
FAIRFIELD *      N/A    N/A N/A N/A MISG        N/A
FORT MADISON * SUNNY     73  64  73 SE10G16   29.93F
KEOKUK *       SUNNY     73  66  78 S8        29.92F
OSKALOOSA *    CLOUDY    68  64  88 S13       29.92R
OTTUMWA        CLOUDY    70  64  81 S13       29.91R
WASHINGTON *   PTSUNNY   72  70  94 S10       29.93F
$$

ABBREVIATIONS USED IN REMARKS
   TC - TEMPERATURES IN CELSIUS
  WCI - WIND CHILL INDEX
   HX - HEAT INDEX
  VSB - VISIBILITY
$$





USA.gov is the U.S. government's official web portal to all federal, state and local government web resources and services.